QPF
0.06 0.09 0.10 0.13 0.11 0.11 0.10 0.11 0.10 0.08 0.10 0.11 0.11 0.11 0.11 0.11 0.09 0.06 0.05 0.04 0.05 0.09 0.08 0.05 0.03 0.04 0.05 0.06 0.08 0.09 0.09 0.08 0.10 0.10 0.07 0.04 0.03 0.04 0.03 0.03 0.03 0.03 0.04
0.04 0.09 0.10 0.12 0.15 0.13 0.12 0.11 0.12 0.12 0.12 0.14 0.17 0.19 0.18 0.16 0.16 0.12 0.08 0.07 0.06 0.05 0.04 0.04 0.04 0.04 0.04 0.05 0.06 0.09 0.09 0.08 0.08 0.08 0.08 0.05 0.04 0.03 0.03 0.03 0.03 0.02 0.03
0.05 0.07 0.08 0.10 0.10 0.11 0.12 0.10 0.09 0.09 0.09 0.12 0.18 0.21 0.19 0.19 0.17 0.15 0.10 0.06 0.05 0.04 0.03 0.03 0.04 0.04 0.05 0.05 0.07 0.08 0.07 0.06 0.06 0.07 0.08 0.07 0.05 0.04 0.05 0.05 0.04 0.03 0.03
0.04 0.05 0.06 0.07 0.08 0.08 0.09 0.09 0.08 0.08 0.09 0.08 0.09 0.15 0.11 0.11 0.11 0.11 0.09 0.07 0.04 0.03 0.02 0.02 0.02 0.03 0.03 0.03 0.04 0.05 0.05 0.05 0.05 0.05 0.05 0.05 0.04 0.05 0.04 0.03 0.03 0.03 0.02
0.04 0.04 0.05 0.06 0.07 0.08 0.07 0.07 0.08 0.09 0.07 0.04 0.05 0.09 0.08 0.05 0.05 0.05 0.05 0.04 0.03 0.03 0.02 0.02 0.02 0.02 0.02 0.01 0.02 0.03 0.03 0.03 0.03 0.03 0.03 0.04 0.03 0.04 0.04 0.02 0.01 0.02 0.03
0.03 0.04 0.06 0.06 0.06 0.06 0.05 0.05 0.04 0.04 0.04 0.03 0.03 0.05 0.06 0.06 0.04 0.03 0.03 0.02 0.02 0.03 0.02 0.02 0.02 0.01 0.02 0.02 0.02 0.03 0.03 0.03 0.02 0.03 0.04 0.04 0.04 0.04 0.04 0.04 0.02 0.02 0.03
0.02 0.03 0.04 0.06 0.07 0.05 0.05 0.04 0.03 0.02 0.01 0.01 0.02 0.03 0.05 0.05 0.05 0.03 0.03 0.03 0.04 0.04 0.03 0.02 0.02 0.02 0.02 0.02 0.03 0.03 0.03 0.03 0.02 0.02 0.02 0.03 0.03 0.03 0.03 0.04 0.04 0.03 0.02
0.02 0.03 0.04 0.05 0.04 0.04 0.04 0.03 0.02 0.01 0.01 0.01 0.01 0.01 0.03 0.04 0.04 0.03 0.02 0.02 0.03 0.02 0.01 0.02 0.02 0.02 0.02 0.02 0.02 0.03 0.02 0.02 0.02 0.02 0.02 0.02 0.01 0.02 0.02 0.04 0.04 0.03 0.02
0.02 0.03 0.04 0.04 0.03 0.03 0.02 0.02 0.01 0.01 0.01 0.01 0.01 0.01 0.01 0.02 0.02 0.02 0.01 0.02 0.02 0.01 0.01 0.01 0.02 0.02 0.02 0.03 0.03 0.03 0.03 0.03 0.03 0.03 0.02 0.02 0.02 0.02 0.03 0.04 0.04 0.03 0.02
0.03 0.04 0.04 0.04 0.03 0.03 0.02 0.02 0.02 0.02 0.01 0.01 0.01 0.00 0.01 0.01 0.01 0.01 0.01 0.02 0.01 0.01 0.01 0.01 0.01 0.02 0.02 0.03 0.04 0.04 0.05 0.04 0.03 0.02 0.03 0.02 0.02 0.02 0.03 0.03 0.04 0.04 0.03
0.02 0.02 0.03 0.05 0.03 0.03 0.02 0.02 0.01 0.01 0.02 0.01 0.01 0.01 0.01 0.01 0.01 0.01 0.02 0.01 0.01 0.02 0.02 0.02 0.02 0.02 0.02 0.03 0.03 0.03 0.03 0.03 0.03 0.03 0.03 0.03 0.03 0.02 0.02 0.02 0.03 0.03 0.03
0.02 0.02 0.02 0.04 0.04 0.03 0.02 0.01 0.01 0.01 0.01 0.01 0.01 0.01 0.01 0.01 0.01 0.01 0.01 0.02 0.02 0.02 0.03 0.02 0.03 0.03 0.03 0.03 0.02 0.02 0.02 0.02 0.02 0.03 0.03 0.03 0.03 0.03 0.03 0.03 0.03 0.02 0.02
0.02 0.02 0.02 0.03 0.03 0.03 0.03 0.01 0.01 0.01 0.01 0.01 0.00 0.00 0.01 0.01 0.01 0.01 0.01 0.01 0.02 0.02 0.03 0.04 0.03 0.03 0.03 0.02 0.02 0.01 0.01 0.01 0.02 0.03 0.03 0.03 0.03 0.03 0.03 0.02 0.02 0.01 0.01
0.02 0.02 0.01 0.02 0.02 0.02 0.04 0.03 0.02 0.01 0.01 0.00 0.00 0.00 0.00 0.00 0.00 0.01 0.01 0.01 0.01 0.03 0.03 0.04 0.02 0.02 0.02 0.02 0.03 0.02 0.02 0.02 0.03 0.03 0.03 0.02 0.02 0.03 0.02 0.02 0.02 0.02 0.02
0.02 0.02 0.01 0.02 0.03 0.02 0.04 0.05 0.05 0.02 0.01 0.01 0.00 0.01 0.01 0.00 0.01 0.01 0.01 0.01 0.01 0.02 0.03 0.04 0.03 0.03 0.02 0.02 0.03 0.03 0.02 0.02 0.01 0.02 0.01 0.01 0.02 0.02 0.01 0.01 0.01 0.01 0.01
0.02 0.03 0.03 0.03 0.03 0.05 0.07 0.06 0.05 0.02 0.01 0.01 0.01 0.01 0.00 0.00 0.01 0.02 0.01 0.01 0.01 0.02 0.03 0.04 0.04 0.03 0.02 0.02 0.02 0.02 0.02 0.01 0.00 0.01 0.01 0.01 0.02 0.02 0.01 0.01 0.01 0.01 0.02
0.03 0.04 0.05 0.06 0.10 0.13 0.09 0.05 0.03 0.02 0.02 0.01 0.01 0.00 0.00 0.01 0.01 0.02 0.02 0.02 0.02 0.03 0.03 0.03 0.04 0.03 0.01 0.01 0.01 0.01 0.01 0.01 0.00 0.01 0.01 0.02 0.02 0.02 0.02 0.01 0.02 0.01 0.01
0.04 0.04 0.06 0.07 0.07 0.07 0.05 0.04 0.03 0.02 0.02 0.01 0.01 0.01 0.00 0.01 0.01 0.02 0.03 0.02 0.02 0.03 0.03 0.02 0.02 0.02 0.01 0.01 0.01 0.01 0.01 0.01 0.01 0.01 0.01 0.01 0.01 0.02 0.01 0.01 0.01 0.01 0.01
0.03 0.04 0.05 0.04 0.05 0.07 0.06 0.04 0.04 0.02 0.01 0.01 0.01 0.01 0.01 0.01 0.01 0.02 0.03 0.03 0.03 0.03 0.03 0.03 0.03 0.02 0.01 0.01 0.01 0.01 0.01 0.01 0.01 0.01 0.01 0.01 0.00 0.01 0.01 0.00 0.00 0.00 0.00
0.01 0.02 0.03 0.03 0.04 0.04 0.03 0.03 0.03 0.01 0.01 0.01 0.01 0.01 0.01 0.00 0.00 0.01 0.02 0.03 0.03 0.03 0.03 0.04 0.04 0.03 0.03 0.03 0.03 0.03 0.01 0.01 0.01 0.00 0.00 0.00 0.00 0.00 0.00 0.00 0.00 0.00 0.00
0.01 0.01 0.02 0.01 0.01 0.01 0.01 0.01 0.01 0.01 0.01 0.01 0.01 0.00 0.00 0.00 0.00 0.01 0.01 0.04 0.03 0.03 0.02 0.02 0.02 0.03 0.03 0.02 0.02 0.02 0.00 0.00 0.00 0.00 0.00 0.00 0.00 0.00 0.00 0.00 0.00 0.00 0.00
0.00 0.00 0.01 0.01 0.00 0.00 0.01 0.01 0.01 0.02 0.02 0.01 0.01 0.00 0.00 0.00 0.01 0.01 0.03 0.05 0.04 0.02 0.02 0.01 0.01 0.01 0.01 0.01 0.01 0.00 0.00 0.00 0.00 0.01 0.01 0.01 0.01 0.00 0.01 0.00 0.01 0.00 0.00
0.00 0.00 0.01 0.01 0.00 0.00 0.00 0.01 0.01 0.01 0.02 0.01 0.00 0.00 0.01 0.01 0.02 0.03 0.05 0.04 0.03 0.01 0.01 0.01 0.01 0.01 0.01 0.00 0.00 0.00 0.00 0.00 0.01 0.01 0.01 0.01 0.01 0.00 0.00 0.00 0.00 0.00 0.00
0.01 0.01 0.01 0.01 0.01 0.00 0.00 0.01 0.00 0.01 0.01 0.01 0.01 0.01 0.02 0.02 0.02 0.03 0.03 0.02 0.01 0.00 0.01 0.00 0.00 0.00 0.00 0.00 0.00 0.00 0.00 0.01 0.01 0.01 0.01 0.01 0.00 0.00 0.00 0.00 0.00 0.01 0.01
0.01 0.01 0.01 0.01 0.01 0.01 0.00 0.01 0.01 0.01 0.01 0.01 0.01 0.02 0.01 0.01 0.01 0.01 0.01 0.00 0.00 0.00 0.00 0.00 0.00 0.00 0.00 0.00 0.00 0.00 0.01 0.01 0.01 0.01 0.00 0.00 0.00 0.00 0.00 0.00 0.00 0.01 0.01
0.01 0.01 0.01 0.01 0.01 0.01 0.00 0.01 0.01 0.01 0.02 0.02 0.03 0.02 0.01 0.00 0.01 0.01 0.00 0.01 0.00 0.00 0.00 0.00 0.00 0.00 0.00 0.00 0.00 0.01 0.01 0.01 0.01 0.01 0.00 0.00 0.00 0.00 0.00 0.00 0.00 0.01 0.03
MSLP
1018.63 1018.66 1018.65 1018.57 1018.44 1018.26 1018.07 1017.89 1017.74 1017.63 1017.57 1017.52 1017.48 1017.40 1017.28 1017.10 1016.87 1016.61 1016.33 1016.06 1015.83 1015.63 1015.47 1015.34 1015.22 1015.08 1014.91 1014.70 1014.44 1014.15 1013.83 1013.49 1013.17 1012.85 1012.55 1012.27 1011.99 1011.72 1011.46 1011.20 1010.95 1010.74 1010.56
1018.54 1018.62 1018.64 1018.59 1018.47 1018.30 1018.11 1017.94 1017.80 1017.73 1017.70 1017.69 1017.68 1017.62 1017.50 1017.31 1017.04 1016.72 1016.38 1016.06 1015.78 1015.55 1015.37 1015.24 1015.12 1014.98 1014.82 1014.61 1014.36 1014.08 1013.78 1013.49 1013.21 1012.95 1012.72 1012.51 1012.29 1012.07 1011.82 1011.56 1011.29 1011.03 1010.79
1018.30 1018.40 1018.44 1018.41 1018.31 1018.15 1017.97 1017.82 1017.73 1017.69 1017.72 1017.77 1017.80 1017.79 1017.69 1017.49 1017.20 1016.85 1016.47 1016.11 1015.79 1015.52 1015.33 1015.17 1015.04 1014.91 1014.75 1014.54 1014.30 1014.04 1013.76 1013.50 1013.28 1013.09 1012.92 1012.77 1012.61 1012.42 1012.19 1011.92 1011.61 1011.29 1010.99
1017.97 1018.06 1018.10 1018.07 1017.97 1017.82 1017.67 1017.55 1017.50 1017.52 1017.61 1017.73 1017.83 1017.87 1017.81 1017.64 1017.36 1017.00 1016.60 1016.21 1015.85 1015.57 1015.34 1015.17 1015.03 1014.89 1014.72 1014.52 1014.29 1014.04 1013.80 1013.57 1013.39 1013.25 1013.14 1013.03 1012.91 1012.74 1012.52 1012.23 1011.89 1011.52 1011.15
1017.63 1017.68 1017.70 1017.65 1017.54 1017.39 1017.25 1017.16 1017.15 1017.23 1017.38 1017.56 1017.74 1017.84 1017.85 1017.72 1017.47 1017.12 1016.73 1016.33 1015.96 1015.65 1015.41 1015.23 1015.07 1014.92 1014.75 1014.56 1014.33 1014.10 1013.88 1013.68 1013.53 1013.43 1013.35 1013.27 1013.17 1013.01 1012.78 1012.47 1012.10 1011.68 1011.25
1017.36 1017.35 1017.32 1017.24 1017.10 1016.94 1016.80 1016.72 1016.73 1016.85 1017.05 1017.30 1017.54 1017.71 1017.77 1017.70 1017.50 1017.19 1016.82 1016.43 1016.06 1015.75 1015.49 1015.29 1015.13 1014.97 1014.80 1014.61 1014.40 1014.18 1013.97 1013.80 1013.67 1013.58 1013.52 1013.46 1013.36 1013.20 1012.96 1012.64 1012.24 1011.79 1011.33
1017.21 1017.14 1017.05 1016.91 1016.74 1016.55 1016.39 1016.30 1016.32 1016.45 1016.68 1016.97 1017.25 1017.47 1017.60 1017.58 1017.43 1017.17 1016.83 1016.46 1016.10 1015.79 1015.53 1015.32 1015.14 1014.98 1014.81 1014.63 1014.43 1014.23 1014.04 1013.88 1013.77 1013.68 1013.62 1013.56 1013.46 1013.30 1013.06 1012.73 1012.33 1011.88 1011.41
1017.19 1017.06 1016.91 1016.73 1016.51 1016.29 1016.09 1015.98 1015.97 1016.09 1016.32 1016.61 1016.91 1017.16 1017.32 1017.35 1017.25 1017.03 1016.73 1016.39 1016.05 1015.74 1015.47 1015.26 1015.08 1014.91 1014.75 1014.57 1014.39 1014.20 1014.03 1013.89 1013.78 1013.70 1013.64 1013.57 1013.47 1013.31 1013.08 1012.77 1012.39 1011.97 1011.52
1017.28 1017.11 1016.93 1016.70 1016.44 1016.17 1015.94 1015.78 1015.73 1015.81 1016.00 1016.26 1016.55 1016.81 1016.98 1017.03 1016.96 1016.78 1016.51 1016.20 1015.87 1015.57 1015.31 1015.09 1014.91 1014.75 1014.59 1014.43 1014.26 1014.10 1013.94 1013.81 1013.71 1013.63 1013.57 1013.50 1013.41 1013.26 1013.06 1012.79 1012.45 1012.08 1011.68
1017.45 1017.27 1017.06 1016.81 1016.51 1016.21 1015.93 1015.72 1015.61 1015.63 1015.76 1015.97 1016.21 1016.44 1016.60 1016.66 1016.60 1016.44 1016.20 1015.90 1015.60 1015.31 1015.05 1014.84 1014.66 1014.50 1014.35 1014.21 1014.07 1013.92 1013.79 1013.67 1013.58 1013.50 1013.44 1013.38 1013.30 1013.18 1013.02 1012.80 1012.53 1012.22 1011.90
1017.66 1017.48 1017.27 1017.00 1016.69 1016.35 1016.03 1015.77 1015.61 1015.55 1015.61 1015.74 1015.92 1016.09 1016.21 1016.25 1016.19 1016.04 1015.82 1015.55 1015.26 1014.99 1014.74 1014.54 1014.36 1014.22 1014.09 1013.97 1013.84 1013.72 1013.61 1013.51 1013.43 1013.36 1013.30 1013.25 1013.19 1013.10 1012.98 1012.82 1012.62 1012.39 1012.14
1017.87 1017.71 1017.51 1017.24 1016.91 1016.56 1016.21 1015.90 1015.68 1015.56 1015.53 1015.58 1015.67 1015.78 1015.84 1015.85 1015.78 1015.63 1015.42 1015.17 1014.91 1014.66 1014.44 1014.25 1014.09 1013.96 1013.85 1013.75 1013.65 1013.56 1013.46 1013.38 1013.31 1013.24 1013.19 1013.15 1013.10 1013.03 1012.95 1012.84 1012.71 1012.55 1012.36
1018.06 1017.92 1017.72 1017.46 1017.13 1016.77 1016.40 1016.06 1015.79 1015.60 1015.49 1015.45 1015.47 1015.49 1015.50 1015.47 1015.38 1015.24 1015.04 1014.82 1014.59 1014.37 1014.17 1014.00 1013.87 1013.77 1013.68 1013.60 1013.53 1013.45 1013.38 1013.31 1013.24 1013.19 1013.13 1013.09 1013.04 1012.99 1012.93 1012.86 1012.77 1012.66 1012.53
1018.21 1018.08 1017.89 1017.62 1017.30 1016.93 1016.55 1016.19 1015.88 1015.63 1015.46 1015.35 1015.28 1015.23 1015.19 1015.12 1015.01 1014.87 1014.69 1014.50 1014.31 1014.12 1013.96 1013.83 1013.73 1013.65 1013.59 1013.53 1013.48 1013.43 1013.37 1013.31 1013.24 1013.18 1013.12 1013.07 1013.02 1012.96 1012.91 1012.86 1012.79 1012.71 1012.61
1018.31 1018.18 1017.98 1017.71 1017.39 1017.02 1016.64 1016.26 1015.92 1015.63 1015.40 1015.22 1015.08 1014.98 1014.88 1014.78 1014.66 1014.52 1014.37 1014.22 1014.06 1013.93 1013.81 1013.72 1013.65 1013.60 1013.56 1013.53 1013.49 1013.45 1013.41 1013.35 1013.28 1013.21 1013.14 1013.07 1013.00 1012.94 1012.87 1012.81 1012.75 1012.68 1012.59
1018.36 1018.20 1017.99 1017.71 1017.38 1017.01 1016.62 1016.24 1015.88 1015.56 1015.28 1015.05 1014.86 1014.70 1014.56 1014.43 1014.31 1014.19 1014.06 1013.95 1013.84 1013.75 1013.68 1013.63 1013.59 1013.57 1013.55 1013.54 1013.52 1013.49 1013.45 1013.39 1013.33 1013.25 1013.16 1013.07 1012.98 1012.90 1012.81 1012.74 1012.66 1012.59 1012.51
1018.34 1018.15 1017.91 1017.61 1017.27 1016.90 1016.51 1016.12 1015.75 1015.40 1015.10 1014.83 1014.59 1014.40 1014.23 1014.08 1013.96 1013.85 1013.75 1013.67 1013.61 1013.56 1013.53 1013.51 1013.51 1013.51 1013.51 1013.51 1013.51 1013.49 1013.45 1013.40 1013.33 1013.25 1013.16 1013.05 1012.95 1012.84 1012.74 1012.65 1012.56 1012.48 1012.40
1018.26 1018.03 1017.76 1017.44 1017.08 1016.71 1016.31 1015.92 1015.55 1015.19 1014.86 1014.56 1014.30 1014.07 1013.88 1013.72 1013.60 1013.50 1013.42 1013.37 1013.34 1013.33 1013.33 1013.34 1013.36 1013.38 1013.40 1013.41 1013.42 1013.41 1013.39 1013.35 1013.28 1013.21 1013.11 1013.00 1012.89 1012.78 1012.67 1012.57 1012.48 1012.39 1012.31
1018.11 1017.85 1017.55 1017.21 1016.84 1016.46 1016.07 1015.68 1015.30 1014.93 1014.59 1014.27 1013.99 1013.74 1013.54 1013.37 1013.24 1013.15 1013.08 1013.05 1013.04 1013.04 1013.06 1013.09 1013.12 1013.15 1013.19 1013.22 1013.24 1013.25 1013.24 1013.22 1013.18 1013.11 1013.03 1012.93 1012.83 1012.72 1012.62 1012.53 1012.44 1012.37 1012.30
1017.92 1017.64 1017.32 1016.97 1016.60 1016.21 1015.82 1015.43 1015.05 1014.68 1014.33 1014.01 1013.71 1013.45 1013.22 1013.04 1012.90 1012.80 1012.73 1012.70 1012.69 1012.69 1012.72 1012.75 1012.79 1012.83 1012.88 1012.93 1012.98 1013.01 1013.03 1013.04 1013.02 1012.98 1012.93 1012.85 1012.77 1012.68 1012.60 1012.52 1012.46 1012.41 1012.37
1017.73 1017.44 1017.11 1016.75 1016.38 1016.00 1015.61 1015.23 1014.85 1014.48 1014.12 1013.79 1013.48 1013.21 1012.96 1012.76 1012.60 1012.48 1012.39 1012.33 1012.30 1012.29 1012.30 1012.33 1012.37 1012.43 1012.50 1012.57 1012.64 1012.72 1012.78 1012.82 1012.84 1012.83 1012.81 1012.76 1012.71 1012.65 1012.59 1012.55 1012.51 1012.49 1012.48
1017.54 1017.26 1016.94 1016.59 1016.22 1015.85 1015.47 1015.09 1014.72 1014.35 1013.99 1013.65 1013.33 1013.04 1012.78 1012.55 1012.35 1012.19 1012.06 1011.96 1011.89 1011.85 1011.83 1011.85 1011.89 1011.95 1012.04 1012.14 1012.26 1012.37 1012.48 1012.57 1012.63 1012.66 1012.67 1012.66 1012.63 1012.60 1012.57 1012.56 1012.56 1012.57 1012.59
1017.38 1017.12 1016.82 1016.49 1016.14 1015.77 1015.40 1015.04 1014.67 1014.30 1013.94 1013.60 1013.26 1012.95 1012.66 1012.39 1012.15 1011.93 1011.74 1011.59 1011.46 1011.36 1011.31 1011.30 1011.33 1011.40 1011.52 1011.66 1011.82 1011.98 1012.14 1012.28 1012.38 1012.46 1012.49 1012.50 1012.50 1012.49 1012.49 1012.50 1012.54 1012.58 1012.64
1017.23 1017.01 1016.74 1016.43 1016.10 1015.75 1015.40 1015.04 1014.68 1014.31 1013.96 1013.60 1013.26 1012.92 1012.60 1012.28 1011.99 1011.70 1011.44 1011.21 1011.01 1010.85 1010.74 1010.70 1010.72 1010.79 1010.93 1011.10 1011.31 1011.53 1011.74 1011.92 1012.07 1012.17 1012.24 1012.27 1012.28 1012.29 1012.31 1012.34 1012.40 1012.47 1012.56
1017.06 1016.88 1016.65 1016.37 1016.07 1015.74 1015.41 1015.06 1014.71 1014.35 1014.00 1013.64 1013.29 1012.93 1012.57 1012.21 1011.85 1011.50 1011.16 1010.84 1010.55 1010.32 1010.15 1010.06 1010.05 1010.12 1010.26 1010.47 1010.71 1010.98 1011.23 1011.46 1011.64 1011.78 1011.86 1011.91 1011.94 1011.96 1011.99 1012.04 1012.12 1012.22 1012.34
1016.81 1016.68 1016.49 1016.25 1015.98 1015.68 1015.36 1015.03 1014.70 1014.35 1014.01 1013.66 1013.31 1012.94 1012.56 1012.16 1011.74 1011.32 1010.89 1010.49 1010.11 1009.79 1009.55 1009.40 1009.34 1009.39 1009.53 1009.75 1010.01 1010.31 1010.60 1010.86 1011.07 1011.23 1011.34 1011.41 1011.45 1011.48 1011.52 1011.59 1011.70 1011.83 1011.97
Thickness
5712 5711 5710 5710 5708 5705 5702 5700 5698 5696 5694 5691 5687 5685 5683 5683 5681 5681 5680 5680 5678 5677 5676 5675 5674 5673 5671 5671 5670 5669 5669 5668 5668 5667 5668 5670 5671 5670 5670 5670 5670 5669 5669
5706 5705 5704 5703 5700 5698 5696 5695 5693 5691 5690 5687 5684 5682 5679 5677 5677 5677 5676 5675 5674 5673 5672 5671 5670 5669 5667 5667 5666 5664 5663 5662 5662 5661 5660 5659 5661 5663 5665 5664 5663 5663 5662
5702 5700 5698 5696 5695 5694 5692 5691 5689 5687 5685 5682 5679 5676 5674 5672 5672 5671 5671 5671 5670 5669 5668 5667 5666 5665 5664 5662 5662 5660 5658 5656 5656 5656 5654 5651 5651 5653 5656 5656 5656 5656 5655
5699 5696 5694 5692 5691 5690 5689 5686 5684 5683 5681 5678 5675 5672 5669 5667 5667 5667 5667 5667 5667 5666 5665 5664 5663 5662 5660 5658 5657 5656 5654 5652 5650 5649 5648 5647 5646 5644 5645 5647 5648 5648 5649
5695 5693 5691 5689 5688 5687 5686 5683 5681 5679 5677 5675 5672 5669 5666 5665 5665 5664 5664 5663 5663 5663 5661 5660 5659 5657 5656 5655 5653 5652 5650 5648 5646 5644 5643 5641 5639 5638 5636 5637 5639 5640 5642
5692 5690 5688 5686 5685 5683 5681 5679 5678 5675 5674 5673 5670 5667 5664 5663 5662 5660 5659 5659 5659 5658 5657 5655 5654 5653 5651 5650 5649 5648 5646 5644 5642 5639 5637 5636 5633 5632 5630 5629 5631 5632 5634
5688 5686 5684 5683 5681 5679 5677 5676 5674 5672 5671 5669 5667 5665 5663 5661 5659 5657 5656 5655 5654 5653 5652 5651 5650 5649 5647 5645 5644 5643 5641 5639 5637 5635 5632 5630 5629 5627 5625 5623 5623 5623 5625
5685 5683 5682 5680 5678 5676 5675 5673 5671 5669 5667 5666 5664 5662 5661 5659 5657 5655 5654 5652 5651 5650 5649 5648 5646 5645 5643 5641 5639 5638 5636 5634 5632 5630 5628 5625 5624 5622 5620 5618 5616 5616 5617
5681 5680 5679 5678 5676 5675 5673 5670 5668 5666 5665 5663 5661 5659 5658 5656 5655 5653 5652 5650 5649 5648 5646 5644 5642 5640 5638 5636 5634 5632 5631 5629 5627 5625 5623 5620 5619 5617 5615 5613 5612 5609 5609
5677 5676 5675 5674 5674 5673 5670 5668 5666 5664 5663 5661 5659 5657 5655 5654 5653 5651 5649 5648 5646 5645 5643 5640 5638 5636 5634 5631 5629 5627 5626 5624 5622 5620 5618 5616 5614 5612 5610 5608 5606 5605 5604
5673 5672 5671 5671 5670 5668 5666 5664 5662 5661 5659 5658 5656 5654 5653 5651 5650 5648 5647 5645 5643 5642 5639 5637 5635 5632 5630 5628 5625 5623 5621 5619 5617 5615 5614 5612 5610 5607 5605 5603 5601 5599 5598
5670 5669 5667 5666 5665 5663 5662 5661 5660 5658 5657 5655 5653 5651 5650 5648 5646 5645 5644 5642 5640 5638 5636 5634 5631 5629 5627 5624 5622 5619 5617 5615 5613 5611 5610 5608 5606 5603 5600 5598 5596 5595 5593
5667 5665 5663 5661 5660 5659 5659 5658 5657 5656 5654 5653 5650 5648 5647 5645 5643 5642 5640 5638 5636 5634 5632 5630 5628 5626 5624 5621 5619 5616 5614 5612 5610 5608 5606 5603 5601 5598 5596 5593 5591 5590 5589
5663 5660 5658 5657 5657 5656 5656 5656 5655 5653 5652 5650 5647 5645 5644 5643 5641 5639 5637 5635 5633 5631 5629 5628 5626 5624 5621 5619 5616 5614 5611 5609 5607 5604 5602 5600 5597 5595 5592 5590 5587 5586 5584
5660 5658 5656 5655 5654 5654 5654 5654 5653 5651 5649 5647 5645 5643 5642 5640 5638 5636 5634 5633 5631 5629 5627 5626 5624 5621 5619 5616 5614 5612 5609 5606 5604 5601 5599 5597 5595 5593 5590 5587 5584 5582 5580
5658 5656 5656 5654 5654 5653 5653 5652 5650 5649 5647 5645 5643 5641 5639 5638 5636 5634 5632 5630 5629 5627 5625 5623 5621 5619 5616 5614 5612 5610 5607 5604 5601 5598 5596 5594 5592 5590 5587 5584 5582 5580 5577
5655 5654 5653 5652 5652 5652 5651 5650 5649 5647 5644 5642 5641 5639 5637 5636 5634 5633 5631 5628 5626 5625 5623 5621 5619 5616 5614 5612 5610 5608 5604 5600 5598 5595 5592 5591 5589 5586 5584 5581 5579 5576 5574
5655 5653 5652 5651 5651 5650 5649 5648 5647 5645 5642 5640 5638 5637 5636 5634 5632 5631 5629 5627 5625 5623 5621 5619 5616 5614 5612 5609 5607 5605 5601 5598 5596 5593 5590 5587 5585 5582 5579 5577 5574 5572 5570
5654 5653 5652 5650 5649 5648 5647 5646 5644 5642 5640 5638 5636 5636 5634 5632 5631 5629 5627 5625 5623 5621 5619 5617 5614 5611 5609 5607 5605 5602 5599 5596 5593 5591 5588 5584 5581 5578 5575 5572 5569 5567 5565
5653 5652 5651 5649 5647 5646 5645 5642 5641 5639 5638 5637 5636 5635 5633 5631 5629 5627 5625 5623 5621 5619 5617 5614 5612 5609 5607 5605 5603 5600 5597 5594 5591 5588 5585 5582 5578 5574 5570 5566 5563 5561 5560
5651 5650 5648 5645 5644 5643 5641 5639 5638 5637 5637 5636 5634 5633 5631 5630 5628 5625 5623 5621 5619 5616 5614 5612 5610 5607 5605 5603 5601 5598 5594 5591 5588 5585 5582 5579 5574 5570 5566 5562 5559 5557 5554
5648 5646 5643 5642 5641 5640 5637 5636 5635 5636 5635 5633 5632 5631 5629 5628 5626 5623 5621 5618 5616 5614 5611 5609 5607 5606 5604 5601 5599 5596 5592 5589 5585 5582 5579 5575 5571 5567 5563 5560 5556 5552 5549
5643 5642 5639 5638 5637 5636 5634 5633 5634 5634 5632 5631 5629 5628 5626 5625 5623 5620 5618 5616 5613 5611 5609 5607 5605 5603 5602 5599 5596 5593 5590 5586 5582 5579 5575 5571 5567 5563 5560 5556 5552 5548 5545
5638 5637 5635 5633 5632 5632 5632 5631 5632 5631 5629 5628 5626 5625 5623 5622 5620 5618 5617 5614 5612 5610 5608 5606 5603 5601 5599 5597 5594 5591 5588 5584 5580 5575 5571 5567 5563 5559 5555 5552 5547 5543 5540
5633 5632 5630 5630 5629 5629 5628 5629 5628 5627 5625 5624 5623 5622 5621 5619 5617 5616 5615 5614 5612 5609 5607 5606 5603 5600 5598 5596 5592 5588 5585 5582 5577 5572 5568 5564 5559 5555 5552 5548 5543 5540 5536
5630 5629 5627 5627 5627 5626 5625 5626 5625 5624 5622 5621 5620 5619 5617 5616 5615 5614 5613 5613 5611 5610 5608 5605 5602 5600 5597 5594 5591 5587 5583 5579 5574 5569 5565 5560 5556 5551 5548 5544 5540 5536 5532